www.pogodaiklimat.ru

Погода и климат >> Архив погоды >> Французская Гвиана >> Сен-Лоран-дю-Марони


ПОГОДА в Сен-Лоран-дю-Марони

  • Прогноз погоды в Сен-Лоран-дю-Марони
  • Монитор погоды в Сен-Лоран-дю-Марони

АРХИВ ПОГОДЫ в Сен-Лоран-дю-Марони

Время (UTC), дата Ветер
(напр.,м/с)
 
Видим.   Явления Облачность Т
(С)
Тd
(С)
f
(%)
Тe
(С)
Тes
(С)
Комфортность P
(гПа)
Po
(гПа)
Тmin
(С)
Tmax
(С)
R
(мм)
R24
(мм)
S
(см)
18 18.06 В 3 н/о н/о +32.1 +22.2 56 +41 +41 опасность
перегрева
1011.7 1011.1 +24.1 +33.1
21 18.06 В 3 н/о н/о +25.6 +22.3 82 +33 +33 очень
душно
1012.3 1011.7 +24.1 +33.1
00 19.06 В 1 н/о н/о +24.4 +23.0 92 +32 +32 очень
душно
1013.7 1013.1 +24.1 +33.1
03 19.06 ЮВ 1 н/о н/о +23.7 +22.9 95 +31 +31 очень
душно
1014.3 1013.7 +23.7 +33.1
06 19.06 штиль 0 н/о н/о +22.9 +22.2 96 +31 +31 очень
душно
1013.7 1013.1 +22.9 +33.1
09 19.06 штиль 0 н/о н/о +22.2 +21.5 96 +29 +29 очень
душно
1014.3 1013.7 +22.2 +33.1
12 19.06 ЮВ 3 н/о н/о +28.7 +24.5 78 +41 +41 опасность
перегрева
1015.0 1014.4 +22.2 +33.1
15 19.06 В 3 н/о н/о +32.2 +25.3 67 +46 +46 опасность
перегрева
1014.7 1014.1 +22.2 +33.1
18 19.06 В 2 н/о н/о +27.8 +25.0 85 +40 +40 очень
душно
1013.3 1012.7 +22.2 +32.2
21 19.06 СВ 2 н/о н/о +28.1 +23.2 75 +38 +38 очень
душно
1012.7 1012.1 +22.2 +32.2
00 20.06 Ю 1 н/о н/о +25.9 +24.7 93 +37 +37 очень
душно
1014.3 1013.7 +22.2 +32.2
03 20.06 Ю 1 н/о н/о +24.7 +24.0 96 +34 +34 очень
душно
1014.9 1014.3 +22.2 +32.2
06 20.06 Ю 1 н/о н/о +24.2 +23.5 96 +33 +33 очень
душно
1013.9 1013.3 +22.2 +32.2
09 20.06 штиль 0 н/о н/о +23.7 +23.2 97 +32 +32 очень
душно
1014.3 1013.7 +22.2 +32.2
12 20.06 штиль 0 н/о н/о +25.6 +24.9 96 +36 +36 очень
душно
1015.9 1015.3 +23.7 +32.2
15 20.06 СВ 2 н/о н/о +24.0 +23.0 94 +32 +32 очень
душно
1016.5 1015.9 +23.7 +32.1
18 20.06 СВ 1 н/о н/о +29.5 +24.8 76 +42 +42 опасность
перегрева
1014.1 1013.5 +23.7 +29.7
21 20.06 СВ 2 н/о н/о +28.3 +23.0 73 +38 +38 очень
душно
1013.1 1012.5 +23.7 +30.3
00 21.06 штиль 0 н/о н/о +24.4 +23.2 93 +33 +33 очень
душно
1015.0 1014.4 +23.7 +30.3
03 21.06 Ю 1 н/о н/о +23.9 +23.2 96 +32 +32 очень
душно
1015.4 1014.8 +23.7 +30.3
06 21.06 СЗ 1 н/о н/о +24.1 +23.6 97 +33 +33 очень
душно
1013.9 1013.3 +23.7 +30.3
09 21.06 штиль 0 н/о н/о +23.2 +22.7 97 +32 +32 очень
душно
1014.3 1013.7 +23.2 +30.3
12 21.06 СЗ 2 н/о н/о +26.3 +24.9 92 +38 +38 очень
душно
1015.9 1015.3 +23.1 +30.3 0.2
15 21.06 В 2 н/о н/о +31.8 +24.4 65 +44 +44 опасность
перегрева
1015.5 1014.9 +23.1 +31.8
18 21.06 С 2 н/о н/о +31.7 +24.8 67 +45 +45 опасность
перегрева
1013.3 1012.7 +23.1 +33.1
21 21.06 СВ 2 н/о н/о +29.0 +23.9 74 +40 +40 очень
душно
1013.3 1012.7 +23.1 +33.1
00 22.06 Ю 1 н/о н/о +25.4 +22.9 86 +34 +34 очень
душно
1015.6 1015.0 +23.1 +33.1
03 22.06 штиль 0 н/о н/о +24.7 +23.3 92 +33 +33 очень
душно
1016.5 1015.9 +23.1 +33.1
06 22.06 штиль 0 н/о н/о +23.8 +22.9 95 +32 +32 очень
душно
1015.1 1014.5 +23.1 +33.1
09 22.06 ЮВ 1 н/о н/о +23.7 +22.9 95 +31 +31 очень
душно
1014.9 1014.3 +23.1 +33.1
12 22.06 ЮВ 2 н/о н/о +27.6 +23.6 79 +38 +38 очень
душно
1016.6 1016.0 +23.6 +33.1
15 22.06 В 3 н/о н/о +31.2 +23.8 65 +43 +43 опасность
перегрева
1015.9 1015.3 +23.6 +33.1
18 22.06 В 2 н/о н/о +33.0 +22.1 53 +42 +42 опасность
перегрева
1013.4 1012.8 +23.6 +33.7
21 22.06 В 1 н/о н/о +25.3 +24.1 93 +35 +35 очень
душно
1013.7 1013.1 +23.6 +33.7
00 23.06 В 2 н/о н/о +24.5 +23.3 93 +33 +33 очень
душно
1015.7 1015.1 +23.6 +33.7
03 23.06 штиль 0 н/о н/о +23.8 +23.1 96 +32 +32 очень
душно
1016.7 1016.1 +23.6 +33.7
06 23.06 Ю 1 н/о н/о +23.8 +23.1 96 +32 +32 очень
душно
1014.9 1014.3 +23.6 +33.7
09 23.06 штиль 0 н/о н/о +23.8 +23.3 97 +32 +32 очень
душно
1015.8 1015.2 +23.6 +33.7
12 23.06 В 1 н/о н/о +24.6 +23.9 96 +34 +34 очень
душно
1016.7 1016.1 +23.7 +33.7
15 23.06 В 2 н/о н/о +29.3 +24.6 76 +42 +42 опасность
перегрева
1015.7 1015.1 +23.7 +33.7
18 23.06 СВ 1 н/о н/о +27.9 +25.9 89 +42 +42 опасность
перегрева
1013.4 1012.8 +23.7 +33.0
21 23.06 СВ 2 н/о н/о +28.4 +23.5 75 +39 +39 очень
душно
1012.9 1012.3 +23.7 +30.6
00 24.06 СВ 1 н/о н/о +25.0 +23.8 93 +34 +34 очень
душно
1013.9 1013.3 +23.7 +30.6
03 24.06 СВ 1 н/о н/о +24.5 +23.6 95 +33 +33 очень
душно
1014.3 1013.7 +23.7 +30.6
06 24.06 ЮЗ 1 н/о н/о +23.4 +22.7 96 +33 +33 очень
душно
1012.5 1011.9 +23.4 +30.6
09 24.06 ЮВ 1 н/о н/о +23.2 +22.7 97 +32 +32 очень
душно
1012.5 1011.9 +23.2 +30.6
12 24.06 ЮВ 2 н/о н/о +25.8 +25.3 97 +37 +37 очень
душно
1013.7 1013.1 +23.1 +30.6
15 24.06 Ю 2 н/о н/о +30.9 +24.8 70 +44 +44 опасность
перегрева
1012.9 1012.3 +23.1 +31.1
18 24.06 СВ 2 н/о н/о +30.6 +25.4 74 +45 +45 опасность
перегрева
1010.6 1010.0 +23.1 +31.2
21 24.06 СВ 2 н/о н/о +25.9 +24.5 92 +36 +36 очень
душно
1010.8 1010.2 +23.1 +31.2
00 25.06 СВ 1 н/о н/о +24.5 +23.6 95 +33 +33 очень
душно
1012.3 1011.7 +23.1 +31.2
03 25.06 ЮЗ 1 н/о н/о +23.9 +23.2 96 +32 +32 очень
душно
1013.0 1012.4 +23.1 +31.2
06 25.06 штиль 0 н/о н/о +23.9 +23.4 97 +32 +32 очень
душно
1011.5 1010.9 +23.1 +31.2
09 25.06 СЗ 1 н/о н/о +23.7 +23.2 97 +32 +32 очень
душно
1011.6 1011.0 +23.1 +31.2
12 25.06 З 1 н/о н/о +26.5 +25.1 92 +38 +38 очень
душно
1012.9 1012.3 +23.5 +31.2
15 25.06 С 2 н/о н/о +30.9 +25.9 75 +46 +46 опасность
перегрева
1012.6 1012.0 +23.5 +31.2 55

 

Местоположение метеостанции Сен-Лоран-дю-Марони (Французская Гвиана): широта 5.50 долгота -54.03 высота над уровнем моря 9 м.

В архиве по умолчанию представлена погода в Сен-Лоран-дю-Марони за последнюю неделю. Архивные данные за месяц целиком и за предыдущие месяцы, начиная с января 2011 года, Вы можете получить, выбрав интересующий диапазон дат из раскрывающегося списка и нажав кнопку "Ввод!".


*Определитесь, кто Вы:
робот инопланетянин человек

Внимание! Время в таблицах - всемирное. Для получения местного времени необходимо прибавить поправку, которая равна -3 ч.

Смотрите также архив погоды в соседних городах и на ближайших метеорологических станциях:

Погода в Аэропорту Йохан Пенгель (Суринам) (130 км)
Погода в Парамарибо (Суринам) (132 км)
Погода на Острове Stoelmans (Суринам) (135 км)
Погода в Кайенне (Французская Гвиана) (199 км)
Погода в Марипаёле (Французская Гвиана) (208 км)
Погода в Ояпоки (Амапа, Бразилия) (305 км)
Погода в Сен-Жорже (Французская Гвиана) (306 км)
Погода в Никкери (Суринам) (336 км)
Погода в Кайетуре (Гайана) (371 км)
Погода в Нью Амстердаме (Гайана) (395 км)

Пояснения к столбцам:

Ветер - указаны скорость ветра в м/с - средняя за 10 мин, порывы в срок и между сроками (в фигурных скобках) и направление, откуда дует ветер: С - северный, СВ - северо-восточный, В - восточный, ЮВ - юго-восточный, Ю - южный, ЮЗ - юго-западный, З - западный, СЗ - северо-западный.
Видимость - горизонтальная дальность видимости в метрах или километрах. При видимости от 1 до 10 км при отсутствии осадков обычно наблюдается дымка, при ухудшении видимости до 1 км и менее - туман. В сухую погоду видимость может ухудшаться дымом, пылью или мглою.
Явления - указаны атмосферные явления, наблюдавшиеся в срок или в последний час перед сроком; фигурными скобками обозначены явления, наблюдавшиеся между сроками (за 1-3 часа до срока); квадратными скобками обозначены град или гололедные отложения с указанием их диаметра в мм.
Облачность - указаны через наклонную черту общая и нижняя облачность в баллах и высота нижней границы облаков в метрах; квадратными скобками обозначены формы облаков: Ci - перистые, Cs - перисто-слоистые, Cc - перисто-кучевые, Ac - высококучевые, As - высокослоистые, Sc - слоисто-кучевые, Ns - слоисто-дождевые, Cu - кучевые, Cb - кучево-дождевые. Подробнее классификацию облаков см. в Атласе облаков (PDF).
T - Температура воздуха - температура, измеренная на высоте 2 м над землей.
Td - Температура точки росы - температура, при понижении до которой содержащийся в воздухе водяной пар достигнет насыщения.
f - Относительная влажность воздуха - влажноcть воздуха, измеренная на высоте 2 м над землей.
Te - Эффективная температура - температура, которую ощущает одетый по сезону человек в тени. Характеристика душности погоды. При расчете учитывается влияние влажности воздуха и скорости ветра на теплоощущения человека.
Tes - Эффективная температура на солнце - температура, которую ощущает человек, с поправкой на солнечный нагрев. Характеристика знойности погоды. Зависит от высоты солнца над горизонтом, облачности и скорости ветра. Ночью, в пасмурную погоду, а также при ветре 12 м/с и более поправка равна нулю.
P - Атмосферное давление - приведенное к уровню моря атмосферное давление.
Po - Атмосферное давление - измеренное на уровне метеостанции атмосферное давление.
Tmin - Минимальная температура - минимум температуры воздуха на высоте 2 м над землей.
Tmax - Максимальная температура - максимум температуры воздуха на высоте 2 м над землей.
R - Количество осадков - Количество выпавших осадков за период времени, мм. При наведении курсора мыши на число - период времени, за который выпало указанное количество осадков.
R24 - Количество осадков - Количество выпавших осадков за 24 часа, мм.
S - Снежный покров - Высота снежного покрова, см. При наведении курсора мыши на число - состояние снежного покрова и степень покрытия местности в баллах.